This is the latest recevied weather packets stored in our database for station/object KF7MJQ-10. If no packets are shown the sender has not sent any weather packets the latest 10 day(s).
| Time | Temp. | Humidity | Pressure | Rain* | Wind** | Luminosity | Snow |
|---|---|---|---|---|---|---|---|
| 1777952119 | 13.33° C | 1% | 1012.4 hPa | 0 mm | - | - | - |
| 1777951818 | 13.33° C | 1% | 1012.3 hPa | 0 mm | - | - | - |
| 1777949131 | 13.33° C | 1% | 1012.3 hPa | 0 mm | - | - | - |
| 1777947310 | 13.33° C | 1% | 1012.2 hPa | 0 mm | - | - | - |
| 1777947006 | 13.89° C | 1% | 1012.3 hPa | 0 mm | - | - | - |
| 1777944337 | 13.89° C | 1% | 1012.4 hPa | 0 mm | - | - | - |
| 1777942507 | 14.44° C | 1% | 1012.5 hPa | 0 mm | - | - | - |
| 1777942249 | 14.44° C | 1% | 1012.6 hPa | 0 mm | - | - | - |
| 1777939517 | 15° C | 1% | 1012.7 hPa | 0 mm | - | - | - |
| 1777939223 | 15° C | 1% | 1012.7 hPa | 0 mm | - | - | - |
| 1777938356 | 15° C | 1% | 1012.8 hPa | 0 mm | - | - | - |
| 1777935930 | 15° C | 1% | 1013 hPa | 0 mm | - | - | - |
| 1777935629 | 15.56° C | 1% | 1013 hPa | 0 mm | - | - | - |
| 1777934105 | 16.11° C | 1% | 1012.9 hPa | 0 mm | - | - | - |
| 1777933807 | 16.11° C | 1% | 1013 hPa | 0 mm | - | - | - |
| 1777933502 | 16.11° C | 1% | 1013 hPa | 0 mm | - | - | - |
| 1777932340 | 16.67° C | 1% | 1013.1 hPa | 0 mm | - | - | - |
| 1777932042 | 16.67° C | 1% | 1013.2 hPa | 0 mm | - | - | - |
| 1777930211 | 16.11° C | 1% | 1013.2 hPa | 0 mm | - | - | - |
| 1777929353 | 16.11° C | 1% | 1013.3 hPa | 0 mm | - | - | - |
| 1777929051 | 16.11° C | 1% | 1013.3 hPa | 0 mm | - | - | - |
| 1777926925 | 15.56° C | 1% | 1013.1 hPa | 0 mm | - | - | - |
| 1777925790 | 15.56° C | 1% | 1013.2 hPa | 0 mm | - | - | - |
| 1777924555 | 16.11° C | 1% | 1013.2 hPa | 0 mm | - | - | - |
| 1777922728 | 15.56° C | 1% | 1013.1 hPa | 0 mm | - | - | - |
* Rain latest hour (hover to see other rain measurements)
** Current wind speed in m/s (hover to see current wind gust speed)